EW6098 Weather Reports


time (UTC)temp
C
wind
direction
speed
KPH
gust
KPH
rain 1hr
cm
rain 24hr
cm
rain mn
cm
humidity
%
barometer
mb
20260503072521 7 331 1.6 4.8 0.00 0.41 0.30 98 1014.8
20260503071529 7 345 1.6 3.2 0.00 0.41 0.30 98 1014.7
20260503070517 7 353 1.6 3.2 0.00 0.41 0.30 98 1014.7
20260503054527 7 350 1.6 4.8 0.03 0.41 0.30 98 1014.5
20260503053535 7 347 1.6 3.2 0.03 0.41 0.30 98 1014.6
20260503052524 7 339 0.0 3.2 0.03 0.41 0.30 98 1014.4
20260503051552 7 329 1.6 3.2 0.00 0.38 0.28 98 1014.4
20260503050520 7 317 1.6 6.4 0.03 0.38 0.28 98 1014.5
20260503045528 7 345 1.6 6.4 0.03 0.38 0.28 98 1014.5
20260503044516 7 37 1.6 6.4 0.08 0.38 0.28 98 1014.4
20260503043525 7 338 1.6 4.8 0.10 0.38 0.28 98 1014.4
20260503042533 7 341 1.6 3.2 0.13 0.38 0.28 98 1014.4
20260503041520 7 354 1.6 3.2 0.15 0.38 0.28 98 1014.3
20260503040609 7 360 1.6 3.2 0.15 0.36 0.25 98 1014.4
20260503035517 7 29 1.6 6.4 0.20 0.36 0.25 98 1014.5
20260503034525 7 341 1.6 4.8 0.15 0.30 0.20 98 1014.4
20260503033533 7 3 1.6 4.8 0.15 0.28 0.18 97 1014.4
20260503032521 7 7 1.6 9.7 0.13 0.25 0.15 97 1014.4
20260503031550 8 350 3.2 6.4 0.10 0.23 0.13 97 1014.4
20260503030519 8 332 3.2 6.4 0.08 0.20 0.10 97 1014.2
20260503025528 8 16 1.6 4.8 0.03 0.15 0.05 97 1014.3
20260503024555 8 357 3.2 11.3 0.05 0.15 0.05 97 1014.2
20260503023524 8 341 1.6 6.4 0.03 0.13 0.03 97 1014.2
20260503022532 8 334 3.2 6.4 0.03 0.13 0.03 97 1014.3
20260503021521 8 340 1.6 3.2 0.03 0.13 0.03 97 1014.4
20260503020529 8 336 3.2 6.4 0.03 0.13 0.03 96 1014.3
20260503015517 8 340 3.2 4.8 0.03 0.13 0.03 96 1014.4
20260503014526 8 356 3.2 4.8 0.00 0.10 0.00 96 1014.4
20260503013535 8 352 1.6 4.8 0.00 0.10 0.00 96 1014.4
20260503012543 8 354 3.2 6.4 0.00 0.10 0.00 96 1014.4
20260503011532 8 6 3.2 4.8 0.00 0.10 0.00 95 1014.5
20260503010519 8 342 3.2 6.4 0.00 0.10 0.00 95 1014.6
20260503005528 8 347 3.2 9.7 0.00 0.10 0.00 95 1014.5
20260503004556 8 10 3.2 6.4 0.00 0.10 0.00 95 1014.6
20260503003526 8 299 3.2 11.3 0.00 0.10 0.00 95 1014.6
20260503002535 8 340 3.2 6.4 0.00 0.10 0.00 95 1014.7
20260503001523 8 1 1.6 6.4 0.00 0.10 0.00 95 1014.7
20260503000532 8 2 4.8 11.3 0.00 0.10 0.00 95 1014.7
20260502235520 8 354 3.2 11.3 0.00 0.10 0.00 95 1014.9
20260502234528 8 4 1.6 6.4 0.00 0.10 0.00 95 1014.9
20260502233516 8 337 3.2 6.4 0.00 0.10 0.00 95 1014.9
20260502232625 8 5 1.6 4.8 0.00 0.10 0.00 95 1014.9
20260502231534 8 331 3.2 4.8 0.00 0.10 0.00 95 1014.9
20260502230522 8 345 1.6 6.4 0.00 0.10 0.00 96 1014.9
20260502225550 8 3 3.2 4.8 0.00 0.10 0.10 96 1014.9
20260502224519 8 20 3.2 11.3 0.00 0.10 0.10 96 1014.8
20260502223528 8 355 3.2 6.4 0.00 0.10 0.10 96 1014.8
20260502222516 8 358 3.2 6.4 0.00 0.10 0.10 96 1014.8
20260502221524 8 324 3.2 6.4 0.00 0.10 0.10 96 1014.8
20260502220533 8 358 3.2 11.3 0.00 0.10 0.10 96 1014.8
20260502215521 8 358 3.2 9.7 0.00 0.10 0.10 96 1014.9
20260502214530 8 349 1.6 4.8 0.00 0.10 0.10 96 1014.9
20260502213559 8 4 3.2 6.4 0.00 0.10 0.10 96 1014.9
20260502212528 9 348 0.0 3.2 0.00 0.10 0.10 96 1015.0
20260502211517 9 357 1.6 6.4 0.00 0.10 0.10 96 1015.0
20260502210546 8 346 1.6 6.4 0.00 0.10 0.10 96 1014.9
20260502205554 8 21 1.6 9.7 0.00 0.10 0.10 96 1014.9
20260502204523 8 353 1.6 4.8 0.00 0.10 0.10 96 1014.9
20260502203531 8 6 1.6 4.8 0.00 0.10 0.10 96 1015.1
20260502202520 8 344 1.6 4.8 0.00 0.10 0.10 96 1014.9
20260502201529 8 351 1.6 4.8 0.00 0.10 0.10 96 1014.9
20260502200518 9 343 1.6 4.8 0.00 0.10 0.10 96 1014.8
20260502195527 9 52 3.2 11.3 0.00 0.10 0.10 96 1014.6
20260502194515 9 348 3.2 6.4 0.00 0.10 0.10 96 1014.6
20260502193545 9 16 3.2 11.3 0.00 0.10 0.10 96 1014.4
20260502192533 9 273 3.2 4.8 0.00 0.10 0.10 95 1014.4
20260502191521 9 348 1.6 3.2 0.00 0.10 0.10 95 1014.2
20260502190530 9 316 1.6 6.4 0.03 0.10 0.10 95 1014.1
20260502185519 10 47 3.2 11.3 0.03 0.10 0.10 94 1014.3
20260502184548 10 17 1.6 3.2 0.05 0.10 0.10 94 1014.4
20260502183517 10 55 1.6 6.4 0.05 0.10 0.10 93 1014.3
20260502182525 10 343 1.6 4.8 0.08 0.10 0.10 93 1014.2
20260502181534 10 346 1.6 3.2 0.08 0.10 0.10 93 1014.0
20260502180521 10 351 1.6 4.8 0.05 0.08 0.08 93 1014.1
20260502163539 14 3 3.2 6.4 0.00 0.15 0.03 80 1013.1
20260502162529 15 344 0.0 3.2 0.00 0.15 0.03 73 1013.1
20260502161517 15 354 1.6 4.8 0.00 0.15 0.03 72 1013.0
20260502160526 15 19 1.6 6.4 0.00 0.15 0.03 72 1012.9
20260502151532 16 10 1.6 4.8 0.00 0.15 0.03 70 1012.9
20260502150520 15 7 1.6 3.2 0.00 0.15 0.03 70 1013.0
20260502130526 18 290 1.6 4.8 0.03 0.18 0.03 66 1013.1
20260502123534 17 332 0.0 1.6 0.03 0.18 0.03 74 1013.1
20260502122522 16 1 1.6 3.2 0.03 0.18 0.03 79 1013.2
20260502121531 16 357 0.0 3.2 0.03 0.18 0.03 77 1013.4
20260502120519 16 353 0.0 1.6 0.00 0.15 0.00 76 1013.3
20260502115528 16 4 1.6 4.8 0.00 0.15 0.00 74 1013.4
20260502114518 18 345 1.6 3.2 0.00 0.15 0.00 68 1013.3
20260502113527 20 305 1.6 4.8 0.00 0.15 0.00 64 1013.3
20260502112516 19 328 1.6 3.2 0.00 0.15 0.00 67 1013.3
20260502111525 18 3 1.6 6.4 0.00 0.15 0.00 70 1013.5
20260502110535 18 319 1.6 4.8 0.00 0.15 0.00 71 1013.5
20260502105524 17 21 1.6 4.8 0.00 0.15 0.00 74 1013.6
20260502104532 17 315 1.6 6.4 0.00 0.15 0.00 74 1013.8
20260502103521 16 316 1.6 4.8 0.00 0.15 0.00 76 1013.8
20260502102530 16 331 1.6 4.8 0.00 0.15 0.00 76 1013.9
20260502101519 16 360 1.6 4.8 0.00 0.15 0.00 77 1013.8
20260502100528 16 350 1.6 3.2 0.00 0.15 0.00 77 1013.8
20260502091531 15 327 1.6 6.4 0.00 0.15 0.00 79 1013.8
20260502090519 15 30 1.6 3.2 0.00 0.15 0.00 80 1013.6